Regional Weather Roundup
Issued by NWS Upton, NY

Current Version | Previous Version | Text Only | Print | Product List | Glossary Off
Versions: 1 2 3 4 5 6 7 8 9 10 11 12 13 14 15 16 17 18 19 20 21 22 23 24 25 26 27 28 29 30 31 32 33 34 35 36 37 38 39 40 41 42 43 44 45 46 47 48 49 50
000 ASUS41 KOKX 281505 RWROKX REGIONAL WEATHER ROUNDUP NATIONAL WEATHER SERVICE NEW YORK NY 1000 AM EST WED JAN 28 2015 NOTE: "FAIR" INDICATES FEW OR NO CLOUDS BELOW 12,000 FEET WITH NO SIGNIFICANT WEATHER AND/OR OBSTRUCTIONS TO VISIBILITY. NYZ071-072-176-178-NJZ106-104-281600- NEW YORK CITY METRO AREA CITY SKY/WX TMP DP RH WIND PRES REMARKS CENTRAL PARK SUNNY 21 1 41 NW10G21 30.06R WCI 10 LAGUARDIA APRT MOSUNNY 22 4 46 N15 30.05 WCI 9 KENNEDY INTL MOSUNNY 22 3 44 NW20 30.05 WCI 7 NEWARK/LIBERTY MOSUNNY 23 6 48 NW13 30.06 WCI 11 BRNX BOT. GARD N/A N/A N/A N/A NW15 30.05R TETERBORO SUNNY 22 2 42 NW12G20 30.05 WCI 10 $$ NYZ177-179-078>081-281600- LONG ISLAND NEW YORK CITY SKY/WX TMP DP RH WIND PRES REMARKS FARMINGDALE SUNNY 22 5 48 N16G26 30.03 WCI 8 ISLIP PTSUNNY 20 7 57 NW18G28 30.00 WCI 5 SHIRLEY MOSUNNY 20 8 60 N14G25 30.02 WCI 7 WESTHAMPTON HAZE 20 7 57 N15G25 30.00 VSB 3/4 WCI 6 MONTAUK POINT N/A 19 8 62 N18G26 29.98 WCI 4 $$ NYZ052-065-067-281600- HUDSON VALLEY CITY SKY/WX TMP DP RH WIND PRES REMARKS WHITE PLAINS MOSUNNY 20 4 50 NW20 29.99 WCI 4 NEWBURGH MOSUNNY 19 5 53 W7 30.03 WCI 10 MONTGOMERY SUNNY 22 2 42 NW16 30.02 WCI 8 POUGHKEEPSIE SUNNY 20 3 48 N12G21 30.05 WCI 8 ALBANY MOSUNNY 13 -3 49 N12 30.12 WCI -1 $$ NJZ001-105-106-008-010-013-015-019>022-104-281600- NEW JERSEY CITY SKY/WX TMP DP RH WIND PRES REMARKS NEWARK/LIBERTY MOSUNNY 23 6 48 NW13 30.06 WCI 11 TETERBORO SUNNY 22 2 42 NW12G20 30.05 WCI 10 CALDWELL SUNNY 22 4 46 NW14G22 30.06 WCI 9 MORRISTOWN MOSUNNY 23 7 50 N7G21 30.06 WCI 15 SOMERVILLE SUNNY 23 5 46 NW14G24 30.07 WCI 11 SUSSEX SUNNY 20 3 48 NW3 30.06 ANDOVER N/A 20 4 50 VRB7 30.08 WCI 11 TRENTON SUNNY 22 3 44 NW12G22 30.08 WCI 10 MILLVILLE SUNNY 26 1 34 NW21G30 30.12 WCI 12 ATLANTIC CITY SUNNY 24 4 42 NW22G28 30.09 WCI 9 WRIGHTSTOWN SUNNY 22 4 45 NW16 30.07 WCI 9 TOMS RIVER SUNNY 21 7 53 NW20G29 30.07R WCI 6 BELMAR SUNNY 21 3 45 NW18 30.05R WCI 6 $$ PAZ047>061-062-071-281600- EASTERN PENNSYLVANIA CITY SKY/WX TMP DP RH WIND PRES REMARKS PHILADELPHIA MOSUNNY 25 2 37 NW20G28 30.14 WCI 11 ALLENTOWN SUNNY 21 3 45 NW20 30.12 WCI 6 SCRANTON MIX PCPN 16 3 56 NW12 30.13 WCI 3 $$ CTZ002-004>006-009-010-012-RIZ004-006-007-MAZ004-011-015-281600- SOUTHERN NEW ENGLAND IN CT CITY SKY/WX TMP DP RH WIND PRES REMARKS BRADLEY INTL PTSUNNY 19 4 51 N13G23 29.98 WCI 6 HARTFORD MOSUNNY 18 4 54 N12G21 30.01 WCI 5 DANBURY MOSUNNY 17 2 51 N18 30.01 WCI 1 WTRBRY/OXFORD PTSUNNY 16 1 53 N18G30 29.94 WCI -1 BRIDGEPORT MOSUNNY 19 7 59 NW9G20 30.02 HAZE WCI 8 MERIDEN MOSUNNY 19 5 54 N7 29.99 WCI 10 NEW HAVEN PTSUNNY 19 7 59 N10 29.99 WCI 7 CHESTER FAIR 18 5 57 N15G29 29.96R WCI 3 GROTON PTSUNNY 15 2 56 N16G24 29.98 WCI -1 WILLIMANTIC SUNNY 16 1 51 N20G26 29.98 WCI -1 IN RI CITY SKY/WX TMP DP RH WIND PRES REMARKS PROVIDENCE PTSUNNY 17 3 54 NW14 29.95 WCI 3 BLOCK ISLAND CLOUDY 18 5 57 N14G23 29.92R WCI 4 WESTERLY MOSUNNY 17 2 51 NW13G21 29.97 WCI 4 IN MA CITY SKY/WX TMP DP RH WIND PRES REMARKS BOSTON PTSUNNY 16 5 62 NW17G25 29.95 WCI 0 WORCESTER CLOUDY 11 1 64 NW15G23 29.89 WCI -5 WESTFIELD MOSUNNY 19 4 51 N14 29.99 WCI 6 PROVINCETOWN PTSUNNY 21 16 79 NW21 29.90R WCI 6 NANTUCKET PTSUNNY 20 13 74 NW20G26 29.89R WCI 4 $$ ANZ330-335-338-340-345-350-353-355-281600- COASTAL MARINE OBSERVATIONS STATION/POSITION TIME SKY/WX TEMP WIND PRES VSBY WAVE AIR SEA DIR/SP/G HT/PER (UTC) (F) (DEG/KT/KT) (MB) (MI) (FT/S) NY HARB ENTRANCE 1500 23 40 320/ 17/ 23 1017.0 4/13 4S FIRE IS NOT AVBL 20S FIRE ISLAND NOT AVBL 23SW MTP 1500 N/A 6/ 5 HUDSON CANYON NOT AVBL EXECUTION ROCKS 1500 24 33 310/ 17/ 23 N/A WESTERN LI SOUND 1500 22 340/ 14/ 19 N/A 1 CENTRAL LI SOUND 1400 20 35 340/ 19/ 25 N/A 3/ 4 EASTERN LI SOUND NOT AVBL ROBBINS REEF 1500 21 330/ 23/ 28 1016.0 $$ >>>>>>>>>>>>>>>>>>>>>>>>>>>> KEY <<<<<<<<<<<<<<<<<<<<<<<<<<< > < > SKY/WX - SKY CONDITION/PRESENT WEATHER < > TMP - TEMPERATURE IN FAHRENHEIT < > DP - DEWPOINT IN FAHRENHEIT < > RH - RELATIVE HUMIDITY IN PERCENT < > WIND - DIRECTION AND SPEED IN MPH < > PRES - MEAN SEA LEVEL PRESSURE IN INCHES OF HG < > WCI - WIND CHILL INDEX < > VSB - VISIBILITY IN MILES < > HX - HEAT INDEX < > TC - TEMPERATURE IN CELSIUS < > VRB - VARIABLE WIND DIRECTION < > < >>>>>>>>>>>>>>>>>>>>>>>>>>>> KEY <<<<<<<<<<<<<<<<<<<<<<<<<<<

USA.gov is the U.S. government's official web portal to all federal, state and local government web resources and services.